Location: Unspecified
(0.0000°N, 0.0000°E)
Time: 13:38:58
(UTC+00:00)

Explorer 11/Cluster Stage 4 - Pass Details

Date: 23 November 2019
Orbit: 467 x 1259 km, 28.8° (Epoch: 08 December)

Event Time Altitude Azimuth Distance (km) Brightness Sun altitude
Rises 04:24:18 0° 267° (W) 4,199 - -19.2°
Reaches altitude 10° 04:28:11 10° 252° (WSW) 3,215 - -18.3°
Exits shadow 04:29:07 13° 247° (WSW) 3,011 9.1 -18.0°
Maximum altitude 04:33:52 21° 208° (SSW) 2,427 9.0 -16.9°
Drops below altitude 10° 04:39:13 10° 162° (SSE) 2,981 10.1 -15.7°
Sets 04:42:40 0° 146° (SE) 3,810 11.0 -14.9°
